N5CNB-2 Weather Reports


time (UTC)temp
F
wind
direction
speed
knots
gust
knots
rain 1hr
in
rain 24hr
in
rain mn
in
humidity
%
barometer
mb
20260504081555 0 0.0 0.0 0.00 0.00 0.00 1016.0
20260504044557 0 0.0 0.0 0.00 0.00 0.00 1018.6
20260504043054 62 171 0.0 1.7 0.00 0.00 0.00 73 1018.6
20260504041554 63 0 0.0 0.9 0.00 0.00 0.00 72 1018.5
20260504040055 63 0 0.0 0.9 0.00 0.00 0.00 71 1018.5
20260504034614 64 171 0.9 3.5 0.00 0.00 0.00 70 1018.8
20260504033050 65 0 0.0 1.7 0.00 0.00 0.00 69 1018.7
20260504031555 66 0 0.0 4.3 0.00 0.00 0.00 67 1018.3
20260504030053 66 172 0.9 6.1 0.00 0.00 0.00 66 1018.5
20260504024553 67 175 1.7 6.1 0.00 0.00 0.00 65 1018.2
20260504023055 67 184 1.7 7.0 0.00 0.00 0.00 66 1017.9
20260504021557 67 185 0.0 2.6 0.00 0.00 0.00 67 1017.8
20260504020103 67 183 0.9 2.6 0.00 0.00 0.00 67 1017.9
20260504014619 67 168 0.0 1.7 0.00 0.00 0.00 67 1017.8
20260504013055 67 0 0.0 2.6 0.00 0.00 0.00 66 1017.6
20260504011602 70 0 0.0 0.0 0.00 0.00 0.00 63 1017.5
20260504010059 73 0 0.0 0.0 0.00 0.00 0.00 56 1017.3
20260504004552 75 0 0.0 0.9 0.00 0.00 0.00 49 1017.4
20260504003059 76 0 0.0 1.7 0.00 0.00 0.00 47 1017.6
20260504001556 75 169 0.0 1.7 0.00 0.00 0.00 48 1017.6
20260504000057 76 0 0.9 4.3 0.00 0.00 0.00 46 1017.8
20260503234553 77 168 0.9 2.6 0.00 0.00 0.00 44 1017.7
20260503233053 77 0 0.9 5.2 0.00 0.00 0.00 43 1017.7
20260503231551 78 92 0.9 7.8 0.00 0.00 0.00 44 1017.9
20260503230051 78 173 3.5 7.8 0.00 0.00 0.00 39 1018.0
20260503224549 78 191 2.6 7.8 0.00 0.00 0.00 40 1018.2
20260503223052 79 197 2.6 8.7 0.00 0.00 0.00 39 1018.4
20260503221550 79 188 0.9 9.6 0.00 0.00 0.00 40 1018.6
20260503220054 78 77 3.5 8.7 0.00 0.00 0.00 38 1018.7
20260503214548 77 169 4.3 10.4 0.00 0.00 0.00 43 1018.9
20260503213107 79 194 2.6 12.2 0.00 0.00 0.00 39 1019.2
20260503211556 77 185 2.6 7.0 0.00 0.00 0.00 43 1019.4
20260503210056 78 80 1.7 8.7 0.00 0.00 0.00 40 1019.7
20260503204555 79 178 0.0 13.0 0.00 0.00 0.00 44 1019.8
20260503203101 76 96 1.7 9.6 0.00 0.00 0.00 47 1020.2
20260503201549 78 119 2.6 9.6 0.00 0.00 0.00 43 1020.3
20260503200055 77 93 5.2 11.3 0.00 0.00 0.00 44 1020.6
20260503194553 78 155 5.2 10.4 0.00 0.00 0.00 42 1020.8
20260503193107 78 108 4.3 8.7 0.00 0.00 0.00 44 1021.0
20260503191601 79 192 1.7 7.8 0.00 0.00 0.00 43 1021.1
20260503190056 78 188 1.7 9.6 0.00 0.00 0.00 43 1021.3
20260503184604 78 68 1.7 7.0 0.00 0.00 0.00 45 1021.5
20260503183104 77 184 1.7 7.8 0.00 0.00 0.00 46 1021.7
20260503181608 77 175 4.3 8.7 0.00 0.00 0.00 43 1022.0
20260503180053 77 180 5.2 10.4 0.00 0.00 0.00 42 1022.0
20260503174554 77 180 1.7 7.8 0.00 0.00 0.00 43 1022.3
20260503173100 77 189 2.6 7.0 0.00 0.00 0.00 49 1022.6
20260503171556 76 163 0.9 7.8 0.00 0.00 0.00 46 1022.7